TimeEST,TemperatureF,Dew PointF,Humidity,Sea Level PressureIn,VisibilityMPH,Wind Direction,Wind SpeedMPH,Gust SpeedMPH,PrecipitationIn,Events,Conditions,WindDirDegrees,DateUTC
12:51 AM,26.1,23.0,88,30.26,10.0,Calm,Calm,-,N/A,,Clear,0,2012-02-06 05:51:00
1:51 AM,23.0,19.9,88,30.27,9.0,South,4.6,-,N/A,,Clear,170,2012-02-06 06:51:00
2:51 AM,24.1,19.9,84,30.26,7.0,Calm,Calm,-,N/A,,Clear,0,2012-02-06 07:51:00
3:51 AM,23.0,19.9,88,30.25,7.0,Calm,Calm,-,N/A,,Clear,0,2012-02-06 08:51:00
4:51 AM,25.0,21.9,88,30.23,10.0,Calm,Calm,-,N/A,,Clear,0,2012-02-06 09:51:00
5:23 AM,21.2,19.4,93,30.15,1.5,Calm,Calm,-,N/A,,Partly Cloudy,0,2012-02-06 10:23:00
5:25 AM,21.2,19.4,93,30.15,0.8,North,3.5,-,N/A,,Mist,350,2012-02-06 10:25:00
5:34 AM,21.2,19.4,93,30.15,0.2,North,3.5,-,N/A,Fog,Light Freezing Fog,10,2012-02-06 10:34:00
5:51 AM,21.9,19.0,89,30.25,1.0,Calm,Calm,-,N/A,,Mist,0,2012-02-06 10:51:00
5:55 AM,21.2,19.4,93,30.15,2.0,Calm,Calm,-,N/A,,Scattered Clouds,0,2012-02-06 10:55:00
6:02 AM,21.2,17.6,86,30.15,9.0,Calm,Calm,-,N/A,,Partly Cloudy,0,2012-02-06 11:02:00
6:51 AM,21.9,19.0,89,30.26,10.0,Calm,Calm,-,N/A,,Clear,0,2012-02-06 11:51:00
7:51 AM,27.0,23.0,85,30.26,10.0,SE,4.6,-,N/A,,Clear,130,2012-02-06 12:51:00
8:51 AM,30.9,27.0,85,30.26,10.0,SSE,10.4,-,N/A,,Clear,150,2012-02-06 13:51:00
9:51 AM,35.1,30.0,82,30.25,10.0,SE,8.1,-,N/A,,Clear,140,2012-02-06 14:51:00
10:51 AM,39.9,32.0,73,30.25,10.0,SE,4.6,-,N/A,,Clear,140,2012-02-06 15:51:00
11:51 AM,44.1,35.1,71,30.22,10.0,West,8.1,-,N/A,,Scattered Clouds,260,2012-02-06 16:51:00
12:51 PM,45.0,34.0,65,30.19,10.0,WSW,6.9,-,N/A,,Overcast,250,2012-02-06 17:51:00
1:37 PM,44.6,33.8,66,30.11,10.0,WNW,5.8,-,N/A,,Overcast,290,2012-02-06 18:37:00
1:51 PM,44.1,34.0,68,30.18,10.0,West,5.8,-,N/A,,Overcast,270,2012-02-06 18:51:00
2:36 PM,44.6,33.8,66,30.09,10.0,West,6.9,-,N/A,,Overcast,280,2012-02-06 19:36:00
2:51 PM,45.0,34.0,65,30.16,10.0,West,9.2,-,N/A,,Overcast,280,2012-02-06 19:51:00
3:39 PM,44.6,33.8,66,30.08,10.0,WNW,8.1,-,N/A,,Overcast,300,2012-02-06 20:39:00
3:51 PM,44.1,34.0,68,30.16,10.0,WNW,5.8,-,N/A,,Overcast,290,2012-02-06 20:51:00
4:49 PM,39.2,33.8,81,30.10,10.0,WNW,6.9,-,N/A,,Overcast,300,2012-02-06 21:49:00
4:51 PM,39.0,33.1,79,30.19,10.0,WNW,8.1,-,N/A,,Overcast,290,2012-02-06 21:51:00
5:38 PM,39.2,33.8,81,30.11,10.0,WSW,5.8,-,N/A,,Overcast,240,2012-02-06 22:38:00
5:51 PM,37.9,33.1,83,30.19,10.0,WSW,5.8,-,N/A,,Overcast,240,2012-02-06 22:51:00
6:35 PM,37.4,30.2,75,30.11,10.0,WSW,9.2,-,N/A,,Overcast,250,2012-02-06 23:35:00
6:51 PM,37.9,30.9,76,30.21,10.0,West,15.0,-,N/A,,Overcast,270,2012-02-06 23:51:00
7:51 PM,37.0,30.0,76,30.21,10.0,West,9.2,-,N/A,,Overcast,270,2012-02-07 00:51:00
8:51 PM,36.0,30.0,79,30.19,10.0,West,6.9,-,N/A,,Overcast,270,2012-02-07 01:51:00
9:51 PM,35.1,28.9,78,30.20,10.0,WNW,6.9,-,N/A,,Overcast,300,2012-02-07 02:51:00
10:16 PM,33.8,28.4,81,30.13,10.0,West,8.1,-,N/A,,Scattered Clouds,280,2012-02-07 03:16:00
10:51 PM,32.0,27.0,82,30.20,10.0,WNW,5.8,-,N/A,,Clear,300,2012-02-07 03:51:00
11:51 PM,30.2,26.6,86,30.14,10.0,WSW,4.6,-,N/A,,Clear,250,2012-02-07 04:51:00